Date String (YYYY-MM-DD hh:mm:ss) UTC,Instrument flags,absolute air pressure of the measurement (hPa),sample flow rate (lpm),inlet stack bypass flow (lpm),air temperature of the measurement (°C),ambient temperature measured by the external sensor (°C),aerosol sample conditioner tube jacket temperature (°C),OPC LED temperature (°C),internal box temperature (°C),relative humidity of the measurement (%),span deviation,mass concentration of particles derived from Lorenz-Mie calculation of OPC scattering (μg/m³),mass concentration of particles derived from Lorenz-Mie calculation of OPC scattering (μg/m³),mass concentration of particles derived from Lorenz-Mie calculation of OPC scattering (μg/m³)
DateTimeUTC,F1_M11,P_M11,Q1_M11,Q2_M11,T1_M11,T2_M11,T3_M11,T4_M11,T5_M11,U1_M11,ZSPAN_M11,X2_M11,X0_M11,X1_M11
2023-08-15 08:00:00,SystemResetWarning,0838.4,5.00,000.00,029.4,027.1,000.0,038.1,030.8,20.8,0000.8,0006.00,0013.49,0005.04
2023-08-15 08:01:00,SystemResetWarning,0838.4,5.00,000.00,029.4,027.3,000.0,038.1,030.8,20.8,0000.0,0005.97,0013.41,0005.04
2023-08-15 08:02:00,SystemResetWarning,0838.4,5.00,000.00,029.4,027.4,000.0,038.1,030.9,20.7,0000.0,0005.97,0013.18,0005.03
2023-08-15 08:03:00,SystemResetWarning,0838.3,5.00,000.00,029.4,027.6,000.0,038.1,030.9,20.7,0000.0,0005.94,0012.64,0005.03
2023-08-15 08:04:00,SystemResetWarning,0838.4,4.99,000.00,029.4,027.6,000.0,038.1,030.9,20.6,0000.0,0005.89,0012.25,0005.03
2023-08-15 08:05:00,SystemResetWarning,0838.4,4.99,000.00,029.4,027.7,000.0,038.1,031.0,20.5,0000.0,0005.90,0012.63,0005.03
2023-08-15 08:06:00,SystemResetWarning,0838.4,5.00,000.00,029.4,027.8,000.0,038.1,031.0,20.3,0000.0,0005.95,0012.74,0005.03
2023-08-15 08:07:00,SystemResetWarning,0838.4,5.00,000.00,029.4,027.9,000.0,038.1,031.0,20.4,0000.0,0005.98,0012.64,0005.03
2023-08-15 08:08:00,SystemResetWarning,0838.5,5.00,000.00,029.4,027.9,000.0,038.1,031.0,20.4,0000.0,0005.98,0011.87,0005.03
2023-08-15 08:09:00,SystemResetWarning,0838.5,5.00,000.00,029.5,027.9,000.0,038.1,031.0,20.2,0001.7,0005.95,0012.17,0005.03
2023-08-15 08:10:00,SystemResetWarning,0838.5,5.01,000.00,029.5,028.0,000.0,038.1,031.0,20.3,0001.7,0005.93,0011.72,0005.01
2023-08-15 08:11:00,SystemResetWarning,0838.4,5.01,000.00,029.5,028.0,000.0,038.1,031.0,20.2,0001.3,0005.97,0011.71,0005.00
2023-08-15 08:12:00,SystemResetWarning,0838.4,5.00,000.00,029.5,028.0,000.0,038.1,031.0,20.0,0001.3,0005.96,0011.80,0004.98
2023-08-15 08:13:00,SystemResetWarning,0838.4,5.00,000.00,029.5,028.0,000.0,038.1,031.0,20.0,0002.1,0005.98,0011.93,0004.98
2023-08-15 08:14:00,SystemResetWarning,0838.4,5.00,000.00,029.5,028.0,000.0,038.1,031.1,19.9,0002.4,0005.97,0013.28,0004.97
2023-08-15 08:15:00,SystemResetWarning,0838.4,4.99,000.00,029.5,028.1,000.0,038.1,031.1,19.9,0002.1,0005.97,0014.48,0004.94
2023-08-15 08:16:00,SystemResetWarning,0838.4,4.99,000.00,029.5,028.1,000.0,038.1,031.1,19.9,0002.1,0005.95,0014.85,0004.92
2023-08-15 08:17:00,SystemResetWarning,0838.4,5.00,000.00,029.5,028.1,000.0,038.1,031.1,20.0,0001.8,0005.94,0014.74,0004.89
2023-08-15 08:18:00,SystemResetWarning,0838.4,5.00,000.00,029.6,028.1,000.0,038.1,031.1,20.0,0000.8,0005.89,0015.04,0004.88
2023-08-15 08:19:00,SystemResetWarning,0838.4,5.00,000.00,029.6,028.1,000.0,038.2,031.2,20.0,0000.0,0005.89,0015.34,0004.85
2023-08-15 08:20:00,SystemResetWarning,0838.4,5.00,000.00,029.6,028.1,000.0,038.2,031.2,19.9,0000.0,0005.88,0015.67,0004.82
2023-08-15 08:21:00,SystemResetWarning,0838.4,5.00,000.00,029.6,028.2,000.0,038.2,031.2,20.0,0000.0,0005.95,0016.41,0004.81
2023-08-15 08:22:00,SystemResetWarning,0838.4,5.00,000.00,029.6,028.2,000.0,038.2,031.2,20.0,0000.0,0005.89,0016.83,0004.80
2023-08-15 08:23:00,SystemResetWarning,0838.4,5.00,000.00,029.6,028.2,000.0,038.2,031.2,20.0,0000.0,0005.92,0017.00,0004.80
2023-08-15 08:24:00,SystemResetWarning,0838.4,5.01,000.00,029.6,028.2,000.0,038.2,031.2,20.0,0000.0,0005.88,0017.38,0004.78
2023-08-15 08:25:00,SystemResetWarning,0838.4,5.01,000.00,029.6,028.2,000.0,038.2,031.2,20.0,0000.0,0005.93,0016.86,0004.77
2023-08-15 08:26:00,SystemResetWarning,0838.4,4.99,000.00,029.6,028.2,000.0,038.2,031.2,20.0,0000.0,0005.98,0015.98,0004.77
2023-08-15 08:27:00,SystemResetWarning,0838.4,4.99,000.00,029.7,028.2,000.0,038.2,031.2,20.0,0000.6,0006.02,0015.50,0004.78
2023-08-15 08:28:00,SystemResetWarning,0838.5,5.01,000.00,029.7,028.3,000.0,038.2,031.2,20.0,0001.8,0006.00,0015.42,0004.79
2023-08-15 08:29:00,SystemResetWarning,0838.4,5.01,000.00,029.7,028.3,000.0,038.3,031.2,20.0,0002.1,0005.99,0015.63,0004.78
2023-08-15 08:30:00,SystemResetWarning,0838.4,5.00,000.00,029.7,028.3,000.0,038.3,031.2,20.1,0002.2,0005.98,0015.83,0004.78
2023-08-15 08:31:00,SystemResetWarning,0838.4,4.99,000.00,029.7,028.3,000.0,038.3,031.2,20.0,0002.5,0006.00,0014.99,0004.78
2023-08-15 08:32:00,SystemResetWarning,0838.4,5.00,000.00,029.7,028.3,000.0,038.3,031.2,20.1,0001.6,0005.94,0014.82,0004.78
2023-08-15 08:33:00,SystemResetWarning,0838.4,5.00,000.00,029.7,028.3,000.0,038.3,031.2,20.2,0001.4,0005.95,0014.17,0004.78
2023-08-15 08:34:00,SystemResetWarning,0838.4,5.00,000.00,029.7,028.3,000.0,038.3,031.2,20.1,0001.5,0005.96,0014.16,0004.77
2023-08-15 08:35:00,SystemResetWarning,0838.4,5.00,000.00,029.7,028.3,000.0,038.3,031.3,20.0,0001.9,0005.97,0013.75,0004.77
2023-08-15 08:36:00,SystemResetWarning,0838.4,5.00,000.00,029.7,028.3,000.0,038.3,031.3,20.0,0001.5,0005.95,0014.01,0004.78
2023-08-15 08:37:00,SystemResetWarning,0838.4,5.00,000.00,029.7,028.3,000.0,038.4,031.3,20.0,0001.5,0005.90,0013.83,0004.77
2023-08-15 08:38:00,SystemResetWarning,0838.3,5.00,000.00,029.7,028.3,000.0,038.4,031.3,20.0,0001.3,0005.89,0014.48,0004.77
2023-08-15 08:39:00,SystemResetWarning,0838.3,5.00,000.00,029.7,028.3,000.0,038.4,031.3,20.0,0001.1,0005.91,0015.05,0004.76
2023-08-15 08:40:00,SystemResetWarning,0838.3,5.00,000.00,029.8,028.3,000.0,038.4,031.3,20.1,0000.1,0005.97,0015.00,0004.75
2023-08-15 08:41:00,SystemResetWarning,0838.3,5.00,000.00,029.8,028.3,000.0,038.4,031.3,20.0,0000.0,0005.96,0015.15,0004.75
2023-08-15 08:42:00,SystemResetWarning,0838.3,5.00,000.00,029.8,028.4,000.0,038.4,031.3,20.0,0000.0,0005.94,0015.26,0004.74
2023-08-15 08:43:00,SystemResetWarning,0838.3,5.00,000.00,029.8,028.4,000.0,038.4,031.3,19.9,0000.0,0005.97,0015.02,0004.74
2023-08-15 08:44:00,SystemResetWarning,0838.3,5.00,000.00,029.8,028.4,000.0,038.4,031.3,19.9,0000.0,0005.98,0015.04,0004.72
2023-08-15 08:45:00,SystemResetWarning,0838.3,5.00,000.00,029.8,028.4,000.0,038.4,031.3,19.9,0000.0,0005.97,0015.28,0004.70
2023-08-15 08:46:00,SystemResetWarning,0838.3,5.00,000.00,029.8,028.4,000.0,038.4,031.3,19.9,0000.0,0005.99,0015.67,0004.71
2023-08-15 08:47:00,SystemResetWarning,0838.3,5.00,000.00,029.8,028.4,000.0,038.4,031.4,19.9,0000.0,0005.95,0014.42,0004.71
2023-08-15 08:48:00,SystemResetWarning,0838.3,5.00,000.00,029.8,028.4,000.0,038.4,031.4,19.9,0000.0,0005.97,0015.01,0004.70
2023-08-15 08:49:00,SystemResetWarning,0838.2,5.00,000.00,029.8,028.4,000.0,038.4,031.4,19.9,0000.0,0005.96,0015.27,0004.69
2023-08-15 08:50:00,SystemResetWarning,0838.2,5.00,000.00,029.8,028.4,000.0,038.4,031.4,19.9,0000.0,0005.98,0015.32,0004.69
2023-08-15 08:51:00,SystemResetWarning,0838.2,5.00,000.00,029.8,028.4,000.0,038.5,031.4,19.9,0000.0,0005.96,0015.38,0004.71
2023-08-15 08:52:00,SystemResetWarning,0838.2,5.00,000.00,029.8,028.4,000.0,038.5,031.4,19.9,0000.0,0006.03,0015.15,0004.72
2023-08-15 08:53:00,SystemResetWarning,0838.2,5.00,000.00,029.9,028.4,000.0,038.5,031.4,19.9,0000.0,0006.08,0015.14,0004.74
2023-08-15 08:54:00,SystemResetWarning,0838.2,5.00,000.00,029.9,028.4,000.0,038.5,031.4,19.9,0000.0,0006.07,0015.03,0004.76
2023-08-15 08:55:00,SystemResetWarning,0838.2,5.00,000.00,029.9,028.4,000.0,038.5,031.4,19.9,0000.0,0006.09,0015.31,0004.78
2023-08-15 08:56:00,SystemResetWarning,0838.2,5.00,000.00,029.9,028.4,000.0,038.5,031.4,19.9,0000.0,0006.13,0015.60,0004.79
2023-08-15 08:57:00,SystemResetWarning,0838.2,5.00,000.00,029.9,028.4,000.0,038.5,031.4,19.9,0000.0,0006.13,0016.56,0004.79
2023-08-15 08:58:00,SystemResetWarning,0838.2,5.00,000.00,029.9,028.4,000.0,038.5,031.4,19.8,0000.0,0006.13,0016.92,0004.80
2023-08-15 08:59:00,SystemResetWarning,0838.1,5.00,000.00,029.9,028.4,000.0,038.5,031.4,19.8,0000.0,0006.07,0016.14,0004.81
